Highgate, VT

1:13 PM EDT on July 24, 2017 (GMT -0400)
Franklin County State

Weather History for KFSO - August, 2013

Change the Weather History Date:

Sunday, August 25, 2013

  Actual Average (KPBG) Record (KPBG)
Temperature  
Mean Temperature 64 °F -  
Max Temperature 80 °F 76 °F 93 °F (2007)
Min Temperature 49 °F 55 °F 42 °F (1989)
Growing Degree Days 14 (Base 50)    
Moisture  
Dew Point 53 °F    
Average Humidity 65    
Maximum Humidity 91    
Minimum Humidity 32    
Precipitation  
Precipitation 0.00 in - - ()
Sea Level Pressure  
Sea Level Pressure 30.26 in    
Wind  
Wind Speed 3 mph (South)    
Max Wind Speed 7 mph    
Max Gust Speed -    
Visibility 10 miles    
Events Rain    
Averages and records for this station are not official NWS values.
T = Trace of Precipitation, MM = Missing Value Source: NWS Daily Summary

Daily Weather History Graph

Daily Weather History Graph

Search for Another Location

Airport or City:

Trip Planner

Search our weather history database for the weather conditions in past years. The results will help you decide how hot, cold, wet, or windy it might be!

Date:

Astronomy

Aug. 25, 2013 Rise Set
Actual Time 6:06 AM EDT 7:41 PM EDT
Civil Twilight 5:35 AM EDT 8:12 PM EDT
Nautical Twilight 4:58 AM EDT 8:49 PM EDT
Astronomical Twilight 4:17 AM EDT 9:29 PM EDT
Moon 9:54 PM EDT (8/25) 11:21 AM EDT (8/25)
Length of Visible Light 14h 36m
Length of Day
13h 35m
Waning Gibbous, 76% of the Moon is Illuminated
Aug 25
Waning Gibbous
Aug 28
Last Quarter
Sep 5
New
Sep 12
First Quarter
Sep 19
Full

Hourly Weather History & Observations

Time (EDT) Temp. Dew Point Humidity Pressure Visibility Wind Dir Wind Speed Gust Speed Precip Events Conditions
12:15 AM 55.8 °F 51.8 °F 87% 30.33 in 10.0 mi Calm Calm - N/A   Clear
12:35 AM 55.8 °F 52.2 °F 88% 30.33 in 10.0 mi Calm Calm - N/A   Clear
12:55 AM 54.7 °F 51.1 °F 88% 30.33 in 10.0 mi Calm Calm - N/A   Clear
1:15 AM 54.5 °F 50.9 °F 88% 30.32 in 10.0 mi ESE 3.5 mph - N/A   Clear
1:35 AM 54.5 °F 50.9 °F 88% 30.32 in 10.0 mi SE 3.5 mph - N/A   Clear
1:55 AM 54.5 °F 50.9 °F 88% 30.32 in 10.0 mi Calm Calm - N/A   Clear
2:15 AM 54.5 °F 50.9 °F 88% 30.31 in 10.0 mi SE 3.5 mph - N/A   Clear
2:35 AM 54.5 °F 50.9 °F 88% 30.32 in 10.0 mi ESE 4.6 mph - N/A   Clear
2:55 AM 54.5 °F 51.1 °F 88% 30.33 in 10.0 mi Calm Calm - N/A   Clear
3:15 AM 53.8 °F 50.5 °F 89% 30.33 in 10.0 mi SE 3.5 mph - N/A   Clear
3:35 AM 52.9 °F 49.6 °F 89% 30.33 in 10.0 mi SE 3.5 mph - N/A   Clear
3:55 AM 51.8 °F 48.9 °F 90% 30.33 in 10.0 mi SE 4.6 mph - N/A   Clear
4:15 AM 51.8 °F 49.1 °F 90% 30.33 in 10.0 mi SE 3.5 mph - N/A   Clear
4:35 AM 51.8 °F 48.7 °F 89% 30.34 in 10.0 mi SE 3.5 mph - N/A   Clear
4:55 AM 51.3 °F 48.4 °F 90% 30.34 in 10.0 mi SE 3.5 mph - N/A   Clear
5:15 AM 50.5 °F 47.8 °F 90% 30.35 in 10.0 mi SE 3.5 mph - N/A   Clear
5:35 AM 50.4 °F 47.7 °F 90% 30.34 in 10.0 mi SE 4.6 mph - N/A   Clear
5:55 AM 49.6 °F 46.9 °F 90% 30.35 in 10.0 mi SE 3.5 mph - N/A   Clear
6:15 AM 49.3 °F 46.6 °F 90% 30.35 in 10.0 mi SE 3.5 mph - N/A   Clear
6:35 AM 49.3 °F 46.6 °F 90% 30.35 in 10.0 mi SE 3.5 mph - N/A   Clear
6:55 AM 51.3 °F 48.7 °F 91% 30.36 in 10.0 mi SE 3.5 mph - N/A   Clear
7:15 AM 52.2 °F 49.5 °F 91% 30.36 in 10.0 mi SE 3.5 mph - N/A   Clear
7:35 AM 54.5 °F 51.4 °F 89% 30.36 in 10.0 mi SE 3.5 mph - N/A   Clear
7:55 AM 56.5 °F 53.1 °F 88% 30.36 in 10.0 mi SSE 3.5 mph - N/A   Clear
8:15 AM 57.0 °F 52.9 °F 86% 30.36 in 10.0 mi SSE 3.5 mph - N/A   Clear
8:35 AM 59.7 °F 54.1 °F 82% 30.36 in 10.0 mi SSE 3.5 mph - N/A   Clear
8:55 AM 61.9 °F 54.9 °F 78% 30.35 in 10.0 mi South 6.9 mph - N/A   Clear
9:15 AM 65.1 °F 56.1 °F 73% 30.35 in 10.0 mi South 4.6 mph - N/A   Clear
9:35 AM 69.4 °F 58.5 °F 68% 30.35 in 10.0 mi South 4.6 mph - N/A   Clear
9:55 AM 69.4 °F 57.2 °F 65% 30.35 in 10.0 mi SSW 4.6 mph - N/A   Clear
10:15 AM 69.4 °F 55.6 °F 61% 30.34 in 10.0 mi SSW 4.6 mph - N/A   Clear
10:35 AM 71.4 °F 54.9 °F 56% 30.33 in 10.0 mi South 3.5 mph - N/A   Clear
10:55 AM 73.9 °F 55.9 °F 53% 30.33 in 10.0 mi WSW 6.9 mph - N/A   Clear
11:15 AM 74.5 °F 54.3 °F 49% 30.32 in 10.0 mi SW 3.5 mph - N/A   Clear
11:35 AM 74.5 °F 54.5 °F 50% 30.31 in 10.0 mi SSW 4.6 mph - N/A   Clear
11:55 AM 74.5 °F 53.1 °F 47% 30.30 in 10.0 mi WSW 3.5 mph - N/A   Clear
12:15 PM 74.7 °F 53.1 °F 47% 30.30 in 10.0 mi WSW 4.6 mph - N/A   Clear
12:35 PM 77.0 °F 55.8 °F 48% 30.30 in 10.0 mi West 6.9 mph - N/A   Clear
12:55 PM 77.0 °F 55.8 °F 48% 30.30 in 10.0 mi SSW 5.8 mph - N/A   Clear
1:15 PM 77.0 °F 53.4 °F 44% 30.29 in 10.0 mi West 3.5 mph - N/A   Clear
1:35 PM 77.2 °F 50.9 °F 40% 30.29 in 10.0 mi SSW 5.8 mph - N/A   Clear
1:55 PM 79.7 °F 51.4 °F 37% 30.28 in 10.0 mi Calm Calm - N/A   Clear
2:15 PM 79.7 °F 49.8 °F 35% 30.26 in 10.0 mi SW 5.8 mph - N/A   Clear
2:35 PM 79.7 °F 49.6 °F 35% 30.25 in 10.0 mi SSE 5.8 mph - N/A   Clear
2:55 PM 79.7 °F 48.9 °F 34% 30.25 in 10.0 mi Calm Calm - N/A   Clear
3:15 PM 80.8 °F 48.9 °F 33% 30.24 in 10.0 mi SSW 5.8 mph - N/A   Clear
3:35 PM 80.8 °F 48.6 °F 32% 30.23 in 10.0 mi South 4.6 mph - N/A   Clear
3:55 PM 80.1 °F 49.8 °F 35% 30.23 in 10.0 mi South 5.8 mph - N/A   Clear
4:15 PM 79.7 °F 48.9 °F 34% 30.22 in 7.0 mi SW 4.6 mph - N/A   Clear
4:35 PM 79.7 °F 48.7 °F 34% 30.20 in 10.0 mi SSW 5.8 mph - N/A   Clear
4:55 PM 79.2 °F 51.3 °F 38% 30.19 in 10.0 mi SSW 3.5 mph - N/A   Clear
5:15 PM 77.0 °F 49.6 °F 38% 30.18 in 10.0 mi Calm Calm - N/A   Clear
5:35 PM 77.0 °F 55.2 °F 47% 30.17 in 10.0 mi Calm Calm - N/A   Clear
5:55 PM 75.0 °F 54.9 °F 49% 30.16 in 10.0 mi Calm Calm - N/A   Clear
6:15 PM 74.5 °F 56.7 °F 54% 30.16 in 10.0 mi Calm Calm - N/A   Clear
6:35 PM 74.5 °F 59.0 °F 58% 30.15 in 10.0 mi Calm Calm - N/A   Clear
6:55 PM 74.5 °F 57.7 °F 56% 30.14 in 10.0 mi Calm Calm - N/A   Clear
7:15 PM 74.5 °F 59.0 °F 58% 30.13 in 10.0 mi SSE 3.5 mph - N/A   Clear
7:35 PM 70.0 °F 56.8 °F 63% 30.11 in 10.0 mi SSE 4.6 mph - N/A   Clear
7:55 PM 70.0 °F 54.9 °F 59% 30.12 in 10.0 mi Calm Calm - N/A   Clear
8:15 PM 69.4 °F 52.9 °F 56% 30.12 in 10.0 mi South 3.5 mph - N/A   Clear
8:35 PM 69.4 °F 52.3 °F 54% 30.12 in 10.0 mi Calm Calm - N/A   Clear
8:55 PM 69.4 °F 53.4 °F 57% 30.12 in 10.0 mi South 3.5 mph - N/A   Clear
9:15 PM 69.4 °F 54.9 °F 60% 30.12 in 10.0 mi South 5.8 mph - N/A   Clear
9:35 PM 69.4 °F 55.0 °F 60% 30.11 in 10.0 mi South 3.5 mph - N/A   Clear
9:55 PM 69.4 °F 55.0 °F 60% 30.11 in 10.0 mi South 3.5 mph - N/A   Clear
10:15 PM 69.4 °F 55.0 °F 60% 30.10 in 10.0 mi South 3.5 mph - N/A   Clear
10:35 PM 69.4 °F 55.4 °F 61% 30.11 in 10.0 mi South 4.6 mph - N/A   Scattered Clouds
10:55 PM 69.4 °F 54.9 °F 60% 30.11 in 10.0 mi South 4.6 mph - N/A   Overcast
11:15 PM 69.4 °F 55.4 °F 61% 30.10 in 10.0 mi South 5.8 mph - N/A   Mostly Cloudy
11:35 PM 69.4 °F 55.8 °F 62% 30.10 in 10.0 mi South 3.5 mph - N/A Rain Rain
11:55 PM 69.4 °F 58.1 °F 67% 30.10 in 10.0 mi South 4.6 mph - N/A Rain Light Rain